User: anonymous   Login
Location: Hokitika
(42.7170°S, 170.9670°E)
Time: 08:52:08
(UTC+13:00)
Language:

Cosmos 1869 Rocket - Orbit

View from above orbital plane
View from above orbital plane
View from above satellite
View from above satellite

Ground track
Ground track

The orbit data is extracted from the following two-line orbital elements,

1 18215U 87062B   19326.13290881  .00000081  00000-0  69307-5 0  9992
2 18215  82.5117 171.3424 0022034  80.3917  64.2677 14.83201979747581
Epoch (UTC): 22 November 2019 03:11:23
Eccentricity: 0.0022034
inclination: 82.5117°
perigee height: 604 km
apogee height: 634 km
right ascension of ascending node: 171.3424°
argument of perigee: 80.3917°
revolutions per day: 14.83201979
mean anomaly at epoch: 64.2677°
orbit number at epoch: 74758

The dashed part of the orbit path shows where the satellite is in the earth's shadow,  

DLR